Location: Fort Wayne
(41.1310°N, 85.1290°W)
Time: 00:38:36
(UTC-04:00)

Iridium 37 - Visible Passes

Search period start: 24 August 2017 00:00
Search period end: 03 September 2017 00:00
Orbit: 776 x 779 km, 86.4° (Epoch: 23 August)

Date Brightness Start Highest point End Pass type
(mag) Time Alt. Az. Time Alt. Az. Time Alt. Az.
24 Aug 5.3 22:50:33 72° SE 22:50:55 76° E 22:56:09 10° N visible
25 Aug 8.1 00:31:00 11° W 00:32:15 12° WNW 00:34:24 10° NW visible
25 Aug 5.9 22:16:52 39° ESE 22:17:30 41° E 22:22:22 10° NNE visible
25 Aug 7.4 23:57:19 21° W 23:58:22 23° WNW 00:02:27 10° NNW visible
26 Aug 6.7 21:43:10 21° E 21:44:12 23° E 21:48:12 10° NNE visible
26 Aug 6.6 23:23:37 36° WSW 23:24:37 40° W 23:29:32 10° NNW visible
27 Aug 7.3 21:09:26 11° E 21:11:02 12° ENE 21:13:04 10° NE visible
27 Aug 5.6 22:49:52 54° SSW 22:51:00 75° W 22:56:15 10° N visible
28 Aug 5.5 22:16:07 44° SE 22:17:30 60° E 22:22:39 10° N visible
28 Aug 8.0 23:56:34 13° W 23:58:40 16° WNW 00:01:48 10° NW visible
29 Aug 6.3 21:42:19 25° ESE 21:44:08 32° E 21:48:44 10° NNE visible
29 Aug 7.2 23:22:45 22° WSW 23:24:50 28° W 23:29:19 10° NNW visible
30 Aug 7.0 21:08:29 13° ESE 21:10:53 18° E 21:14:19 10° NE visible
30 Aug 6.2 22:48:55 31° SW 22:51:08 51° W 22:56:14 10° N visible
31 Aug 5.4 22:15:01 31° S 22:17:34 86° E 22:22:48 10° N visible
31 Aug 8.4 23:57:47 10° W 23:59:00 11° WNW 00:00:14 10° WNW visible
01 Sep 5.8 21:41:04 22° SSE 21:44:08 46° E 21:49:05 10° NNE visible
01 Sep 7.8 23:21:29 11° WSW 23:25:05 20° WNW 23:28:54 10° NNW visible
02 Sep 6.5 21:07:01 12° SE 21:10:48 26° E 21:15:01 10° NNE visible
02 Sep 6.9 22:47:27 15° SW 22:51:19 36° W 22:56:06 10° NNW visible
